{"data":{"norad_id":56318,"intl_designator":"2023-058B","name":"STARLINK-5954","alt_names":[],"object_type":"PAYLOAD","status":"ACTIVE","operator":null,"country":"US","launch_date":"2023-04-27","launch_site_code":"AFWTR","launch_vehicle":null,"mission":null,"orbit_class":"UNKNOWN","rcs_meters":null,"size_class":null,"mass_kg":null,"dimensions":null,"purposes":["comms"],"wikipedia_slug":null,"has_3d_model":false,"image_url":null,"decayed_at":null,"tle_current":{"epoch":"2026-05-24T23:59:30.528960Z","epoch_age_seconds":75874,"freshness":"FRESH","line1":"1 56318U 23058B   26144.99965890 -.00001507  00000+0 -10038-3 0  9992","line2":"2 56318  97.4467 146.1374 0001854  74.9364 285.2068 15.05662297169335","mean_motion":15.05662297,"eccentricity":0.0001854,"inclination_deg":97.4467,"raan_deg":146.1374,"arg_perigee_deg":74.9364,"mean_anomaly_deg":285.2068,"bstar":-0.00010038,"rev_number":16933,"period_min":95.638975809461,"perigee_km":548.18905549292,"apogee_km":550.75781344202,"semimajor_km":6927.6104344675,"source":"CELESTRAK","updated_at":"2026-05-25T13:38:17.999165Z"}}}